Lid_Strength_Index
-1 1 1 1 7 7 11 10 7 8 7 5 5 6 6 5 7 9 1 -0 -0 -1 -1 -1 -1 -1 -1 -1 -1 -1 -1 -1 -1 -1 -2 -1 -1 -2 -2 -2 -2 -2 -2 -2 -1 -2 -1 -1 -1
0 2 0 3 8 11 11 8 8 7 6 5 5 5 6 7 4 3 2 0 -1 -1 -1 -1 -1 -2 -1 -1 -2 -1 -1 -1 -1 -1 -1 -2 -1 -1 -2 -2 -2 -2 -2 -1 -1 -1 -1 -1 -1
1 2 4 6 8 11 11 8 7 6 5 5 6 4 5 6 3 3 0 -0 -1 -1 -1 -1 -1 -1 -1 -1 -1 -2 -2 -1 -1 -1 -1 -1 -2 -1 -1 -2 -2 -2 -1 -1 -1 -1 -1 -1 -1
1 1 3 8 11 9 8 7 6 6 5 4 5 6 4 2 3 1 -0 -0 -0 -1 -1 -1 -1 -1 -1 -1 -1 -1 -1 -2 -1 -1 -1 -1 -1 -2 -1 -1 -2 -2 -1 -1 -1 -1 -1 -1 -1
1 3 8 10 10 8 6 6 5 6 6 5 5 7 6 3 1 0 0 -0 -0 -0 -1 -1 -1 -1 -1 -1 -1 -1 -1 -1 -1 -1 -1 -2 -2 -2 -2 -2 -2 -2 -1 -1 -1 -1 -1 -1 -1
4 4 9 11 10 8 7 6 5 6 6 5 6 6 5 2 2 1 0 -0 -1 -0 -1 -1 0 -0 -1 -2 -2 -2 -2 -2 -2 -1 -1 -1 -2 -2 -2 -2 -1 -2 -1 -1 -1 -1 -1 -1 -1
5 6 10 10 10 8 8 6 6 6 6 6 4 6 4 3 1 0 0 -0 -0 -1 -1 -1 -1 -1 0 -1 -1 -1 -2 -2 -2 -2 -2 -2 -2 -2 -2 -2 -2 -2 -1 -1 -1 -1 -1 -1 -1
4 5 10 9 10 9 7 6 5 5 6 3 3 6 6 3 1 0 0 0 -0 -0 -1 -1 -1 -1 -1 -1 1 -0 -1 -1 -1 -2 -1 -1 -1 -1 -2 -1 -3 -2 -2 -1 -1 -1 -1 -1 -1
3 7 10 10 9 8 6 7 5 5 5 4 4 4 3 2 1 1 1 1 1 0 -0 -1 -1 -1 -1 -1 -0 1 0 -0 -0 -0 -0 -0 -2 -2 -1 -1 -1 -2 -2 -2 -2 -2 -2 -2 -2
5 7 8 6 6 7 6 6 5 5 5 5 4 3 2 2 2 2 2 2 2 1 0 -0 -1 -1 -1 -1 -1 -1 -1 -1 -1 -1 -1 -0 -1 -2 -1 0 0 -0 -0 -2 -2 -2 -1 -1 -2
6 8 6 6 6 5 6 6 5 6 7 5 5 4 2 2 2 2 2 2 2 1 0 -0 -0 -1 -1 -1 -1 -1 -1 -1 -1 -1 -1 -1 -1 -0 -0 -1 -1 -2 0 -1 -1 -1 -1 -1 -1
8 7 6 6 5 6 7 5 6 5 5 3 3 3 3 3 2 2 2 2 1 1 1 -0 -1 -1 -1 -1 -1 -1 -0 -1 -1 -1 -1 -1 -1 -1 -0 1 -0 -1 -1 -1 -1 -1 -1 -1 -1
8 7 6 6 6 6 5 6 6 6 4 3 3 3 3 3 2 2 2 1 1 1 1 0 -0 -0 -1 -1 -1 -1 -1 -1 -1 -1 -1 -1 -1 -1 -1 -1 -0 0 -0 -1 -1 -1 -1 -0 -0
7 7 7 6 6 6 7 6 6 5 4 4 4 3 3 3 3 2 2 2 2 1 1 -0 -0 -1 -1 -0 -1 -1 -1 -1 -1 -0 -1 -1 -1 -1 -1 -1 -1 -0 -0 0 -0 -0 -0 -1 -1
6 8 7 7 7 7 6 8 8 5 4 5 4 4 3 3 3 3 2 2 2 1 0 0 -0 -1 -0 -0 -1 -1 -1 -1 -1 -1 -1 -1 -1 -1 -1 -1 -0 -1 -1 -0 -0 0 -0 0 -0
9 8 11 8 7 6 6 11 7 5 5 5 4 4 4 3 3 2 2 2 2 2 1 0 -0 -0 -0 -0 -0 -1 -1 -1 -1 -1 -1 -1 -0 -1 -1 -0 -0 -1 -1 -1 -0 1 1 1 1
10 12 12 10 7 8 8 10 7 5 5 5 5 4 4 4 3 3 2 2 2 2 2 2 1 -0 -0 -0 -1 -1 -1 -1 -1 -1 -1 -1 -0 -1 -1 -1 -1 -1 -1 -0 -0 0 1 1 1
13 13 11 11 9 8 9 9 7 6 6 6 5 5 5 5 4 3 3 3 3 3 3 3 2 1 -0 -0 -0 -0 -0 -0 -1 -1 -1 -1 -1 -1 0 -1 -1 -0 -0 -0 0 1 0 1 1
10 11 12 10 8 9 9 9 8 6 6 6 6 5 5 5 4 4 4 4 4 4 3 2 2 1 0 0 1 1 1 0 -0 -1 -1 -1 -1 0 -0 -0 -0 -0 0 1 0 0 1 1 0
10 12 12 10 8 9 9 10 8 7 7 6 6 6 6 5 5 5 6 6 6 5 5 4 3 1 0 0 0 0 0 -0 -0 -1 -1 -1 -1 -1 -0 -0 0 -0 0 1 1 1 2 2 1
11 12 12 12 9 9 10 11 10 9 8 7 6 6 6 6 6 7 7 7 6 6 6 6 5 4 4 2 0 0 -0 -0 1 0 0 -0 0 0 -0 -0 -0 0 0 1 1 1 1 3 1
13 10 10 11 13 14 10 16 11 10 9 8 8 8 8 8 8 8 8 8 8 8 7 7 7 6 5 5 4 4 3 3 5 5 4 3 3 1 -1 -1 -0 -0 0 1 1 1 1 2 3
12 9 10 10 12 13 13 16 13 11 11 9 9 9 9 9 9 9 9 9 9 8 8 8 8 8 7 6 5 5 5 5 4 3 3 2 1 0 0 1 -0 0 1 0 1 1 1 1 2
9 10 11 11 13 18 14 14 14 13 11 9 9 9 10 10 10 10 10 10 10 10 9 9 9 9 8 7 6 5 5 5 5 5 5 4 3 3 3 4 3 2 1 0 -0 0 1 1 1
10 12 17 18 19 18 14 14 13 11 10 9 9 9 9 10 10 10 11 11 11 11 11 10 10 10 9 8 9 8 7 8 8 8 8 7 7 7 7 6 6 5 4 3 2 0 0 1 1
12 12 15 20 19 17 14 17 13 9 8 8 9 9 10 11 11 11 11 11 12 12 11 11 11 11 10 10 10 10 10 9 9 9 9 9 9 8 8 8 7 6 6 5 4 3 1 0 1
12 14 10 15 16 17 15 13 12 10 10 11 10 10 11 11 12 12 12 11 11 12 12 12 12 12 12 11 10 10 11 11 10 10 10 10 10 10 10 9 8 8 7 6 6 4 4 3 2
10 9 16 15 20 20 16 15 14 13 11 11 11 10 11 11 12 12 12 12 12 12 13 13 13 13 13 12 12 11 12 12 12 11 12 12 11 11 11 10 9 8 8 7 7 6 5 5 4
12 13 12 13 15 18 18 16 11 11 10 10 9 9 10 11 12 12 13 13 12 12 14 14 14 14 14 13 13 13 13 13 13 13 13 13 12 12 12 11 10 10 9 8 7 7 6 6 6
9 11 12 15 17 15 15 16 10 9 9 8 8 9 10 11 12 12 12 13 13 13 15 15 15 15 15 14 14 14 14 14 14 14 14 13 14 13 13 13 12 12 11 10 9 8 8 8 8